STARLINK-32449, 61670

Orbit data source: Space-Track

STARLINK-32449, 61670 is a payload satellite owned by SpaceX/Seattle (US) in LEO that was launched on Sat, 26 Oct 2024 UTC via an FALCON 9 launch vehicle from the Air Force Eastern Test Range (AFETR). Payload-class satellites include a variety of spacecraft equipped with specific instruments for various scientific and technological missions. These include communications satellites like Starlink; space stations such as the ISS; scientific satellites like the Hubble; Earth observation satellites from companies like Planet Labs, Umbra, and HawkEye 360; GPS; miniature CubeSats for education and research; and military/defense satellites.

Loading next visibility...
Identifier
61670, 2024-193K
Orbit
LEO
Country
Flag of USUS
Related business
Manufacturer
SpaceX/Seattle
Mission
Operational Commercial Communications
Bus & Motor
STARLINK V2M, Unknown motor
Mass
730 kg wet, ~700 kg dry
Launch date (UTC)
2024-10-26 (1 year ago)
Launch vehicle
FALCON 9
Launch site
Air Force Eastern Test Range (AFETR)
Object type
Payload
Rocket body
Debris
Shape & HBR
Box + 2 Pan, 17.7 m
Radar Cross Section
33.884 m², Large (>1 m²)

Expand to show TLE details & history
Last TLE update: 18 hours ago

TLE from 18 hours ago
0 STARLINK-32449
1 61670U 24193K   25291.54902485 -.00001029  00000-0 -22631-4 0  9997
2 61670  53.1613  31.2820 0001375  87.2460 272.8698 15.30173706 54767
Epoch: 2025-10-18T13:10Z
TLE epoch observation values (Epoch: 2025-10-18T13:10:35.747Z)
Latitude
-0.00001°
Longitude
166.3546°
Altitude
476.146 km
Speed
7.629 km/s
True Right ascension
02h 05m 07s
True Declination
0° 00' 00"
Sunlit
Object was in full shadow at epoch
Visualization orbit readout
Latitude
Unknown
Longitude
Unknown
Altitude
Unknown
Speed
Unknown
Apparent Right ascension
Unknown
Apparent Declination
Unknown
Sunlit
N/A
Visualization observer readout
Local Sidereal Time
02:09:59
Azimuth
Unknown
Elevation
Unknown
Doppler factor
Unknown
Orbital elements
Apogee altitude
476.492 km
Perigee altitude
474.607 km
Semi-major axis
6,853.687 km
Eccentricity
0.00014
Inclination
53.1613°
RAAN
31.282°
Arg. of periapsis
87.246°
True anomaly
272.85406°
Mean anomaly
272.8698°
Eccentric anomaly
272.86193°
Mean motion
3.82522 °/min
Orbital period
94.11 mins
BSTAR
-0.000022631
Loading maneuver chart data...
Computing Atmospheric mass density...
Loading historical data...
Loading historical data...
Loading historical data...
Loading historical data...
Loading historical data...
Loading historical data...
Loading historical data...

Documentation

Showing up to 5 results
|